GPS BIIRM-4 (PRN 15)

Last updated on Sat Apr 13 2024 01:03:04 GMT+0100 (British Summer Time)

1 32260U 07047A 24102.99226517 .00000012 00000+0 00000+0 0 9992 2 32260 53.5723 112.9904 0152722 74.2583 287.4489 2.00567791120848
UTC large
Height (km)
Speed (km/s)
/
Latitude / Longitude
Inclination (degrees)
Orbital Period (minutes)
Azimuth
Elevation
Range (km)
Doppler Factor

Next 0 passes for location: London (51.5072 / 0.1276)

Sorry there are no passes over London.